{"data":{"norad_id":61681,"intl_designator":"2024-193W","name":"STARLINK-32426","alt_names":[],"object_type":"PAYLOAD","status":"ACTIVE","operator":null,"country":"US","launch_date":"2024-10-26","launch_site_code":"AFETR","launch_vehicle":null,"mission":null,"orbit_class":"UNKNOWN","rcs_meters":null,"size_class":null,"mass_kg":null,"dimensions":null,"purposes":["comms"],"wikipedia_slug":null,"has_3d_model":false,"image_url":null,"decayed_at":null,"tle_current":{"epoch":"2026-05-25T02:47:47.957856Z","epoch_age_seconds":75710,"freshness":"FRESH","line1":"1 61681U 24193W   26145.11652729  .00000184  00000+0  18340-4 0  9994","line2":"2 61681  53.1608  96.3114 0001720 104.4195 255.6997 15.30188649 88223","mean_motion":15.30188649,"eccentricity":0.000172,"inclination_deg":53.1608,"raan_deg":96.3114,"arg_perigee_deg":104.4195,"mean_anomaly_deg":255.6997,"bstar":1.834e-5,"rev_number":8822,"period_min":94.106043783625,"perigee_km":474.0701792834,"apogee_km":476.42774405421,"semimajor_km":6853.3859616688,"source":"CELESTRAK","updated_at":"2026-05-25T13:38:19.438445Z"}}}